TimePDT,TemperatureF,Dew PointF,Humidity,Sea Level PressureIn,VisibilityMPH,Wind Direction,Wind SpeedMPH,Gust SpeedMPH,PrecipitationIn,Events,Conditions,WindDirDegrees,DateUTC
12:52 AM,71.1,37.0,29,29.96,10.0,South,3.5,-,N/A,,Clear,180,2013-03-29 07:52:00
1:52 AM,69.1,36.0,30,29.96,10.0,South,6.9,-,N/A,,Unknown,190,2013-03-29 08:52:00
2:52 AM,66.0,35.1,32,29.96,10.0,SW,3.5,-,N/A,,Clear,230,2013-03-29 09:52:00
3:52 AM,60.1,30.9,33,29.96,10.0,North,5.8,-,N/A,,Clear,350,2013-03-29 10:52:00
4:52 AM,61.0,32.0,34,29.97,10.0,NNW,4.6,-,N/A,,Unknown,340,2013-03-29 11:52:00
5:52 AM,59.0,32.0,36,29.99,10.0,Calm,Calm,-,N/A,,Clear,0,2013-03-29 12:52:00
6:52 AM,57.0,30.9,37,30.01,10.0,North,5.8,-,N/A,,Clear,360,2013-03-29 13:52:00
7:52 AM,62.1,35.1,37,30.02,10.0,Calm,Calm,-,N/A,,Clear,0,2013-03-29 14:52:00
8:52 AM,70.0,36.0,29,30.04,10.0,Calm,Calm,-,N/A,,Clear,0,2013-03-29 15:52:00
9:52 AM,73.9,36.0,25,30.04,10.0,Calm,Calm,-,N/A,,Clear,0,2013-03-29 16:52:00
10:52 AM,80.1,36.0,20,30.05,10.0,Calm,Calm,-,N/A,,Clear,0,2013-03-29 17:52:00
11:52 AM,82.9,37.0,19,30.04,10.0,East,3.5,-,N/A,,Clear,90,2013-03-29 18:52:00
12:52 PM,84.9,39.0,20,30.01,10.0,East,5.8,-,N/A,,Clear,90,2013-03-29 19:52:00
1:52 PM,86.0,36.0,17,29.99,10.0,Calm,Calm,-,N/A,,Clear,0,2013-03-29 20:52:00
2:52 PM,87.1,36.0,16,29.97,10.0,SE,6.9,-,N/A,,Clear,130,2013-03-29 21:52:00
3:52 PM,87.1,34.0,15,29.94,10.0,Variable,4.6,-,N/A,,Clear,0,2013-03-29 22:52:00
4:52 PM,87.1,34.0,15,29.93,10.0,SSE,4.6,-,N/A,,Clear,160,2013-03-29 23:52:00
5:52 PM,86.0,35.1,16,29.93,10.0,SE,4.6,-,N/A,,Clear,140,2013-03-30 00:52:00
6:52 PM,84.9,34.0,16,29.93,10.0,South,4.6,-,N/A,,Clear,180,2013-03-30 01:52:00
7:52 PM,82.9,36.0,19,29.94,10.0,WSW,4.6,-,N/A,,Clear,250,2013-03-30 02:52:00
8:52 PM,81.0,41.0,24,29.96,10.0,WSW,10.4,-,N/A,,Clear,240,2013-03-30 03:52:00
9:52 PM,79.0,39.9,25,29.97,10.0,SW,8.1,-,N/A,,Clear,230,2013-03-30 04:52:00
10:52 PM,77.0,39.9,26,29.98,10.0,SW,4.6,-,N/A,,Clear,230,2013-03-30 05:52:00
11:52 PM,75.0,41.0,29,29.98,10.0,South,5.8,-,N/A,,Clear,170,2013-03-30 06:52:00